Weather History for Ely, MN

Change the Weather History Date:

Monday, August 19, 2013

  Actual Average Record
Temperature  
Mean Temperature 73 °F -  
Max Temperature 84 °F 72 °F 84 °F (2003)
Min Temperature 62 °F 50 °F 35 °F (2012)
Cooling Degree Days 8    
Growing Degree Days 23 (Base 50)    
Moisture  
Dew Point 62 °F    
Average Humidity 71    
Maximum Humidity 94    
Minimum Humidity 45    
Precipitation  
Precipitation 0.39 in - - ()
Sea Level Pressure  
Sea Level Pressure 29.89 in    
Wind  
Wind Speed 6 mph (SW)    
Max Wind Speed 10 mph    
Max Gust Speed -    
Visibility 10 miles    
Events Rain , Thunderstorm    
Averages and records for this station are not official NWS values.
T = Trace of Precipitation, MM = Missing Value Source: NWS Daily Summary

Daily Weather History Graph

Daily Weather History Graph

Search for Another Location

Airport:

Trip Planner

Search our weather history database for the weather conditions in past years. The results will help you decide how hot, cold, wet, or windy it might be!

Date:

Astronomy

Aug. 19, 2013 Rise Set
Actual Time 6:08 AM CDT 8:12 PM CDT
Civil Twilight 5:34 AM CDT 8:45 PM CDT
Nautical Twilight 4:53 AM CDT 9:27 PM CDT
Astronomical Twilight 4:06 AM CDT 10:13 PM CDT
Moon 7:03 PM CDT (8/19) 4:25 AM CDT (8/19)
Length of Visible Light 15h 10m
Length of Day
14h 04m
Waxing Gibbous, 97% of the Moon is Illuminated
Aug 19
Waxing Gibbous
Aug 20
Full
Aug 28
Last Quarter
Sep 5
New
Sep 12
First Quarter

Hourly Weather History & Observations

Time (CDT) Temp. Heat Index Dew Point Humidity Pressure Visibility Wind Dir Wind Speed Gust Speed Precip Events Conditions
12:12 AM 66.2 °F - 55.4 °F 68% 29.93 in 10.0 mi SSW 6.9 mph - N/A   Clear
12:33 AM 66.2 °F - 55.4 °F 68% 29.93 in 10.0 mi SSW 8.1 mph - N/A   Clear
12:53 AM 66.2 °F - 55.4 °F 68% 29.92 in 10.0 mi SSW 5.8 mph - N/A   Clear
1:12 AM 66.2 °F - 55.4 °F 68% 29.92 in 10.0 mi SSW 5.8 mph - N/A   Scattered Clouds
1:33 AM 66.2 °F - 55.4 °F 68% 29.92 in 10.0 mi SSW 6.9 mph - N/A   Scattered Clouds
1:53 AM 66.2 °F - 55.4 °F 68% 29.92 in 10.0 mi SW 4.6 mph - N/A   Mostly Cloudy
2:12 AM 66.2 °F - 55.4 °F 68% 29.92 in 10.0 mi SW 6.9 mph - N/A   Mostly Cloudy
2:33 AM 66.2 °F - 55.4 °F 68% 29.91 in 10.0 mi SSW 6.9 mph - N/A   Mostly Cloudy
2:53 AM 66.2 °F - 55.4 °F 68% 29.90 in 10.0 mi SSW 6.9 mph - N/A   Mostly Cloudy
3:12 AM 66.2 °F - 55.4 °F 68% 29.90 in 10.0 mi SSW 8.1 mph - N/A   Scattered Clouds
3:33 AM 66.2 °F - 55.4 °F 68% 29.90 in 10.0 mi SSW 8.1 mph - N/A   Clear
3:53 AM 66.2 °F - 57.2 °F 73% 29.91 in 10.0 mi SW 3.5 mph - N/A   Clear
4:13 AM 64.4 °F - 57.2 °F 77% 29.91 in 10.0 mi SSW 4.6 mph - N/A   Clear
4:32 AM 66.2 °F - 57.2 °F 73% 29.90 in 10.0 mi SSW 4.6 mph - N/A Thunderstorm Mostly Cloudy
4:53 AM 62.6 °F - 59.0 °F 88% 29.90 in 3.0 mi South 8.1 mph - 0.38 in Rain , Thunderstorm Heavy Thunderstorms and Rain
5:13 AM 62.6 °F - 60.8 °F 94% 29.90 in 10.0 mi SSW 3.5 mph - N/A Thunderstorm Thunderstorm
5:32 AM 62.6 °F - 60.8 °F 94% 29.90 in 10.0 mi South 4.6 mph - N/A Rain Light Rain
5:53 AM 62.6 °F - 60.8 °F 94% 29.90 in 10.0 mi South 3.5 mph - 0.01 in   Mostly Cloudy
6:13 AM 62.6 °F - 60.8 °F 94% 29.91 in 10.0 mi South 6.9 mph - N/A   Mostly Cloudy
6:32 AM 62.6 °F - 60.8 °F 94% 29.91 in 10.0 mi South 6.9 mph - N/A   Mostly Cloudy
6:53 AM 62.6 °F - 60.8 °F 94% 29.89 in 10.0 mi SSW 6.9 mph - N/A   Scattered Clouds
7:13 AM 62.6 °F - 60.8 °F 94% 29.90 in 10.0 mi SE 4.6 mph - N/A   Scattered Clouds
7:32 AM 62.6 °F - 60.8 °F 94% 29.90 in 10.0 mi Calm Calm - N/A   Clear
7:53 AM 62.6 °F - 60.8 °F 94% 29.91 in 10.0 mi Calm Calm - N/A   Mostly Cloudy
8:13 AM 64.4 °F - 60.8 °F 88% 29.91 in 10.0 mi South 3.5 mph - N/A   Overcast
8:32 AM 64.4 °F - 62.6 °F 94% 29.91 in 10.0 mi SSE 4.6 mph - N/A   Overcast
8:53 AM 66.2 °F - 62.6 °F 88% 29.91 in 10.0 mi Calm Calm - N/A   Mostly Cloudy
9:13 AM 69.8 °F - 64.4 °F 83% 29.91 in 10.0 mi SW 4.6 mph - N/A   Clear
9:32 AM 69.8 °F - 64.4 °F 83% 29.91 in 10.0 mi SW 5.8 mph - N/A   Scattered Clouds
9:53 AM 71.6 °F - 64.4 °F 78% 29.90 in 10.0 mi SW 4.6 mph - N/A   Scattered Clouds
10:13 AM 71.6 °F - 64.4 °F 78% 29.90 in 10.0 mi SW 5.8 mph - N/A   Clear
10:32 AM 73.4 °F - 64.4 °F 73% 29.90 in 10.0 mi SW 5.8 mph - N/A   Clear
10:53 AM 75.2 °F - 66.2 °F 73% 29.90 in 10.0 mi WSW 5.8 mph - N/A   Scattered Clouds
11:13 AM 75.2 °F - 64.4 °F 69% 29.90 in 10.0 mi West 5.8 mph - N/A   Mostly Cloudy
11:32 AM 75.2 °F - 66.2 °F 73% 29.90 in 10.0 mi SW 6.9 mph - N/A   Mostly Cloudy
11:53 AM 77.0 °F - 66.2 °F 69% 29.89 in 10.0 mi SW 5.8 mph - N/A   Scattered Clouds
12:13 PM 78.8 °F - 66.2 °F 65% 29.89 in 10.0 mi SW 8.1 mph - N/A   Mostly Cloudy
12:33 PM 78.8 °F - 66.2 °F 65% 29.89 in 10.0 mi SW 8.1 mph - N/A   Scattered Clouds
12:53 PM 78.8 °F - 64.4 °F 61% 29.89 in 10.0 mi SW 6.9 mph - N/A   Scattered Clouds
1:13 PM 80.6 °F 82.3 °F 64.4 °F 58% 29.89 in 10.0 mi WSW 5.8 mph - N/A   Clear
1:32 PM 80.6 °F 82.7 °F 66.2 °F 61% 29.89 in 10.0 mi SW 4.6 mph - N/A   Clear
1:53 PM 80.6 °F 82.3 °F 64.4 °F 58% 29.89 in 10.0 mi SW 8.1 mph - N/A   Clear
2:13 PM 82.4 °F 83.4 °F 62.6 °F 51% 29.88 in 10.0 mi West 6.9 mph - N/A   Clear
2:32 PM 82.4 °F 83.4 °F 62.6 °F 51% 29.88 in 10.0 mi West 10.4 mph - N/A   Clear
2:53 PM 82.4 °F 83.4 °F 62.6 °F 51% 29.88 in 10.0 mi West 8.1 mph - N/A   Clear
3:13 PM 82.4 °F 83.4 °F 62.6 °F 51% 29.88 in 10.0 mi SW 4.6 mph - N/A   Clear
3:32 PM 84.2 °F 85.0 °F 62.6 °F 48% 29.87 in 10.0 mi SSW 10.4 mph - N/A   Clear
3:53 PM 84.2 °F 85.0 °F 62.6 °F 48% 29.87 in 10.0 mi South 8.1 mph - N/A   Scattered Clouds
4:12 PM 84.2 °F 84.4 °F 60.8 °F 45% 29.86 in 10.0 mi SSW 5.8 mph - N/A   Clear
4:33 PM 84.2 °F 84.4 °F 60.8 °F 45% 29.87 in 10.0 mi SW 5.8 mph - N/A   Clear
4:53 PM 84.2 °F 84.4 °F 60.8 °F 45% 29.86 in 10.0 mi SW 5.8 mph - N/A   Clear
5:12 PM 84.2 °F 84.4 °F 60.8 °F 45% 29.86 in 10.0 mi WSW 5.8 mph - N/A   Clear
5:33 PM 84.2 °F 85.0 °F 62.6 °F 48% 29.85 in 10.0 mi WSW 6.9 mph - N/A   Clear
5:53 PM 84.2 °F 85.0 °F 62.6 °F 48% 29.85 in 10.0 mi WSW 4.6 mph - N/A   Clear
6:12 PM 82.4 °F 83.9 °F 64.4 °F 54% 29.85 in 10.0 mi WSW 6.9 mph - N/A   Clear
6:33 PM 82.4 °F 83.9 °F 64.4 °F 54% 29.85 in 10.0 mi SW 5.8 mph - N/A   Scattered Clouds
6:53 PM 82.4 °F 83.9 °F 64.4 °F 54% 29.85 in 10.0 mi SW 5.8 mph - N/A   Scattered Clouds
7:12 PM 80.6 °F 82.3 °F 64.4 °F 58% 29.85 in 10.0 mi SW 4.6 mph - N/A   Clear
7:33 PM 80.6 °F 82.7 °F 66.2 °F 61% 29.85 in 10.0 mi Calm Calm - N/A   Clear
7:53 PM 78.8 °F - 66.2 °F 65% 29.86 in 10.0 mi SSW 3.5 mph - N/A   Scattered Clouds
8:12 PM 77.0 °F - 66.2 °F 69% 29.86 in 10.0 mi South 3.5 mph - N/A   Scattered Clouds
8:33 PM 75.2 °F - 66.2 °F 73% 29.87 in 10.0 mi SSW 5.8 mph - N/A   Mostly Cloudy
8:53 PM 75.2 °F - 66.2 °F 73% 29.87 in 10.0 mi SSW 4.6 mph - N/A   Scattered Clouds
9:12 PM 73.4 °F - 66.2 °F 78% 29.87 in 10.0 mi SSW 5.8 mph - N/A   Clear
9:33 PM 73.4 °F - 66.2 °F 78% 29.88 in 10.0 mi SW 4.6 mph - N/A   Clear
9:53 PM 73.4 °F - 66.2 °F 78% 29.88 in 10.0 mi SW 4.6 mph - N/A   Clear
10:12 PM 73.4 °F - 66.2 °F 78% 29.88 in 10.0 mi SSW 4.6 mph - N/A   Clear
10:33 PM 71.6 °F - 66.2 °F 83% 29.88 in 10.0 mi SSW 5.8 mph - N/A   Clear
10:53 PM 71.6 °F - 66.2 °F 83% 29.88 in 10.0 mi SSW 3.5 mph - N/A   Clear
11:12 PM 71.6 °F - 66.2 °F 83% 29.88 in 10.0 mi Calm Calm - N/A   Clear
11:33 PM 71.6 °F - 66.2 °F 83% 29.88 in 10.0 mi SW 3.5 mph - N/A   Clear
11:53 PM 71.6 °F - 66.2 °F 83% 29.88 in 10.0 mi SW 4.6 mph - N/A   Clear